TimeCDT,TemperatureF,Dew PointF,Humidity,Sea Level PressureIn,VisibilityMPH,Wind Direction,Wind SpeedMPH,Gust SpeedMPH,PrecipitationIn,Events,Conditions,WindDirDegrees,DateUTC
12:15 AM,73.4,64.4,73,30.05,10.0,Calm,Calm,-,N/A,,Clear,0,2013-09-16 05:15:00
12:35 AM,73.4,64.4,73,30.05,10.0,Calm,Calm,-,N/A,,Clear,0,2013-09-16 05:35:00
12:55 AM,73.4,64.4,73,30.05,10.0,Calm,Calm,-,N/A,,Clear,0,2013-09-16 05:55:00
1:15 AM,73.4,64.4,73,30.05,10.0,Calm,Calm,-,N/A,,Clear,0,2013-09-16 06:15:00
1:35 AM,73.4,64.4,73,30.05,10.0,Calm,Calm,-,N/A,,Partly Cloudy,0,2013-09-16 06:35:00
1:55 AM,75.2,62.6,65,30.05,10.0,Calm,Calm,-,N/A,,Scattered Clouds,0,2013-09-16 06:55:00
2:15 AM,75.2,64.4,69,30.05,10.0,Calm,Calm,-,N/A,,Mostly Cloudy,0,2013-09-16 07:15:00
2:35 AM,73.4,64.4,73,30.04,10.0,Calm,Calm,-,N/A,,Partly Cloudy,0,2013-09-16 07:35:00
2:55 AM,71.6,64.4,78,30.04,10.0,Calm,Calm,-,N/A,,Clear,0,2013-09-16 07:55:00
3:15 AM,71.6,62.6,73,30.04,10.0,Calm,Calm,-,N/A,,Clear,0,2013-09-16 08:15:00
3:35 AM,71.6,64.4,78,30.04,10.0,Calm,Calm,-,N/A,,Clear,0,2013-09-16 08:35:00
3:55 AM,71.6,64.4,78,30.04,10.0,Calm,Calm,-,N/A,,Clear,0,2013-09-16 08:55:00
4:15 AM,71.6,64.4,78,30.04,10.0,Calm,Calm,-,N/A,,Clear,0,2013-09-16 09:15:00
4:35 AM,71.6,64.4,78,30.05,10.0,Calm,Calm,-,N/A,,Clear,0,2013-09-16 09:35:00
4:55 AM,71.6,64.4,78,30.05,10.0,Calm,Calm,-,N/A,,Clear,0,2013-09-16 09:55:00
5:15 AM,71.6,64.4,78,30.05,10.0,Calm,Calm,-,N/A,,Clear,0,2013-09-16 10:15:00
5:35 AM,69.8,64.4,83,30.06,10.0,Calm,Calm,-,N/A,,Clear,0,2013-09-16 10:35:00
5:55 AM,69.8,64.4,83,30.06,10.0,Calm,Calm,-,N/A,,Clear,0,2013-09-16 10:55:00
6:15 AM,69.8,64.4,83,30.07,10.0,Calm,Calm,-,N/A,,Clear,0,2013-09-16 11:15:00
6:35 AM,69.8,64.4,83,30.07,10.0,Calm,Calm,-,N/A,,Clear,0,2013-09-16 11:35:00
6:55 AM,69.8,64.4,83,30.08,10.0,Calm,Calm,-,N/A,,Clear,0,2013-09-16 11:55:00
7:15 AM,69.8,64.4,83,30.08,9.0,Calm,Calm,-,N/A,,Clear,0,2013-09-16 12:15:00
7:35 AM,69.8,64.4,83,30.09,9.0,Calm,Calm,-,N/A,,Clear,0,2013-09-16 12:35:00
7:55 AM,71.6,66.2,83,30.09,9.0,Calm,Calm,-,N/A,,Clear,0,2013-09-16 12:55:00
8:15 AM,73.4,66.2,78,30.10,9.0,Calm,Calm,-,N/A,,Clear,0,2013-09-16 13:15:00
8:35 AM,75.2,66.2,73,30.10,7.0,Calm,Calm,-,N/A,,Clear,0,2013-09-16 13:35:00
8:55 AM,78.8,69.8,74,30.11,4.0,Calm,Calm,-,N/A,,Haze,0,2013-09-16 13:55:00
9:15 AM,82.4,73.4,74,30.11,6.0,Calm,Calm,-,N/A,,Haze,0,2013-09-16 14:15:00
9:35 AM,84.2,73.4,70,30.11,5.0,WSW,3.5,-,N/A,,Haze,240,2013-09-16 14:35:00
9:55 AM,84.2,73.4,70,30.12,5.0,Calm,Calm,-,N/A,,Haze,0,2013-09-16 14:55:00
10:15 AM,86.0,69.8,58,30.12,7.0,Calm,Calm,-,N/A,,Clear,0,2013-09-16 15:15:00
10:35 AM,89.6,64.4,43,30.12,5.0,Calm,Calm,-,N/A,,Haze,0,2013-09-16 15:35:00
10:55 AM,89.6,57.2,33,30.12,5.0,SSE,3.5,-,N/A,,Haze,150,2013-09-16 15:55:00
11:15 AM,91.4,59.0,34,30.11,6.0,Calm,Calm,-,N/A,,Haze,0,2013-09-16 16:15:00
11:35 AM,91.4,60.8,36,30.11,7.0,SE,6.9,-,N/A,,Clear,140,2013-09-16 16:35:00
11:55 AM,91.4,62.6,38,30.11,8.0,Calm,Calm,-,N/A,,Clear,0,2013-09-16 16:55:00
12:15 PM,91.4,60.8,36,30.11,8.0,Calm,Calm,-,N/A,,Clear,0,2013-09-16 17:15:00
12:35 PM,91.4,62.6,38,30.10,8.0,Calm,Calm,-,N/A,,Partly Cloudy,0,2013-09-16 17:35:00
12:55 PM,91.4,62.6,38,30.09,10.0,Calm,Calm,-,N/A,,Mostly Cloudy,0,2013-09-16 17:55:00
1:15 PM,93.2,62.6,36,30.08,9.0,Calm,Calm,-,N/A,,Mostly Cloudy,0,2013-09-16 18:15:00
1:35 PM,93.2,62.6,36,30.07,9.0,Calm,Calm,-,N/A,,Partly Cloudy,0,2013-09-16 18:35:00
1:55 PM,95.0,60.8,32,30.06,10.0,East,4.6,-,N/A,,Clear,100,2013-09-16 18:55:00
2:15 PM,93.2,60.8,34,30.05,9.0,Calm,Calm,-,N/A,,Partly Cloudy,0,2013-09-16 19:15:00
2:35 PM,93.2,62.6,36,30.04,10.0,SE,8.1,-,N/A,,Clear,140,2013-09-16 19:35:00
2:55 PM,93.2,62.6,36,30.04,10.0,SSE,6.9,-,N/A,,Clear,150,2013-09-16 19:55:00
3:15 PM,93.2,62.6,36,30.03,9.0,SE,4.6,-,N/A,,Clear,130,2013-09-16 20:15:00
3:35 PM,93.2,62.6,36,30.02,9.0,Calm,Calm,-,N/A,,Partly Cloudy,0,2013-09-16 20:35:00
3:55 PM,93.2,60.8,34,30.02,10.0,Calm,Calm,-,N/A,,Clear,0,2013-09-16 20:55:00
4:15 PM,95.0,60.8,32,30.01,10.0,East,4.6,-,N/A,,Clear,100,2013-09-16 21:15:00
4:35 PM,95.0,60.8,32,30.00,9.0,East,3.5,-,N/A,,Clear,90,2013-09-16 21:35:00
4:55 PM,95.0,60.8,32,30.00,10.0,Calm,Calm,-,N/A,,Clear,0,2013-09-16 21:55:00
5:15 PM,95.0,60.8,32,29.99,10.0,Calm,Calm,-,N/A,,Partly Cloudy,0,2013-09-16 22:15:00
5:35 PM,95.0,60.8,32,29.99,10.0,ESE,4.6,-,N/A,,Partly Cloudy,120,2013-09-16 22:35:00
5:55 PM,93.2,62.6,36,29.99,10.0,ENE,3.5,-,N/A,,Clear,70,2013-09-16 22:55:00
6:15 PM,93.2,62.6,36,29.99,10.0,Calm,Calm,-,N/A,,Clear,0,2013-09-16 23:15:00
6:35 PM,93.2,62.6,36,29.99,9.0,Calm,Calm,-,N/A,,Scattered Clouds,0,2013-09-16 23:35:00
6:55 PM,91.4,62.6,38,30.00,10.0,Calm,Calm,-,N/A,,Partly Cloudy,0,2013-09-16 23:55:00
7:15 PM,91.4,62.6,38,30.00,10.0,Calm,Calm,-,N/A,,Scattered Clouds,0,2013-09-17 00:15:00
7:35 PM,89.6,64.4,43,30.00,10.0,Calm,Calm,-,N/A,,Mostly Cloudy,0,2013-09-17 00:35:00
7:55 PM,89.6,64.4,43,30.01,10.0,Calm,Calm,-,N/A,,Mostly Cloudy,0,2013-09-17 00:55:00
8:15 PM,87.8,64.4,46,30.01,10.0,Calm,Calm,-,N/A,,Scattered Clouds,0,2013-09-17 01:15:00
8:35 PM,86.0,64.4,48,30.02,10.0,Calm,Calm,-,N/A,,Clear,0,2013-09-17 01:35:00
8:55 PM,84.2,64.4,51,30.03,10.0,Calm,Calm,-,N/A,,Partly Cloudy,0,2013-09-17 01:55:00
9:15 PM,84.2,66.2,55,30.03,10.0,Calm,Calm,-,N/A,,Partly Cloudy,0,2013-09-17 02:15:00
9:35 PM,84.2,66.2,55,30.04,10.0,Calm,Calm,-,N/A,,Mostly Cloudy,0,2013-09-17 02:35:00
9:55 PM,82.4,66.2,58,30.05,10.0,Calm,Calm,-,N/A,,Scattered Clouds,0,2013-09-17 02:55:00
10:15 PM,82.4,66.2,58,30.05,10.0,Calm,Calm,-,N/A,,Scattered Clouds,0,2013-09-17 03:15:00
10:35 PM,84.2,66.2,55,30.06,10.0,Calm,Calm,-,N/A,,Mostly Cloudy,0,2013-09-17 03:35:00
10:55 PM,80.6,66.2,61,30.06,10.0,Calm,Calm,-,N/A,,Partly Cloudy,0,2013-09-17 03:55:00
11:15 PM,80.6,66.2,61,30.06,10.0,Calm,Calm,-,N/A,,Clear,0,2013-09-17 04:15:00
11:35 PM,80.6,66.2,61,30.06,10.0,Calm,Calm,-,N/A,,Partly Cloudy,0,2013-09-17 04:35:00
11:55 PM,78.8,69.8,74,30.06,10.0,Calm,Calm,-,N/A,,Partly Cloudy,0,2013-09-17 04:55:00